Snowfall_Accumulation
0.0 0.0 0.0 0.0 0.0 0.0 0.0 0.0 0.0 0.0 0.0 0.0 0.0 0.0 0.0 0.0 0.0 0.0 0.0 0.0 0.0 0.0
0.0 0.0 0.0 0.0 0.0 0.0 0.0 0.0 0.0 0.0 0.0 0.0 0.0 0.0 0.0 0.0 0.0 0.0 0.0 0.0 0.0 0.0
0.0 0.0 0.0 0.0 0.0 0.0 0.0 0.0 0.0 0.0 0.0 0.0 0.0 0.0 0.0 0.0 0.0 0.0 0.0 0.0 0.0 0.0
0.0 0.0 0.0 0.0 0.0 0.0 0.0 0.0 0.0 0.0 0.0 0.0 0.0 0.0 0.0 0.0 0.0 0.0 0.0 0.0 0.0 0.0
0.0 0.0 0.0 0.0 0.0 0.0 0.0 0.0 0.0 0.0 0.0 0.0 0.0 0.0 0.0 0.0 0.0 0.0 0.0 0.0 0.0 0.0
0.0 0.0 0.0 0.0 0.0 0.0 0.0 0.0 0.0 0.0 0.0 0.0 0.0 0.0 0.0 0.0 0.0 0.0 0.0 0.0 0.0 0.0
0.1 0.2 0.1 0.1 0.1 0.0 0.0 0.0 0.0 0.0 0.0 0.0 0.0 0.0 0.0 0.0 0.0 0.0 0.0 0.0 0.0 0.0
0.5 0.5 0.5 0.5 0.6 0.5 0.3 0.2 0.0 0.0 0.0 0.0 0.0 0.0 0.0 0.0 0.0 0.0 0.0 0.0 0.0 0.0
2.0 1.9 2.3 2.0 1.7 1.1 0.7 0.7 0.7 0.3 0.1 0.0 0.0 0.0 0.0 0.0 0.0 0.0 0.0 0.0 0.0 0.0
3.6 3.4 4.0 2.4 1.7 1.9 2.5 1.7 1.6 2.2 2.1 0.3 0.3 0.0 0.0 0.0 0.0 0.0 0.0 0.0 0.0 0.0
2.9 3.2 2.6 2.9 4.0 4.9 4.4 4.4 4.8 3.2 4.1 2.3 3.0 1.6 1.8 2.0 0.9 0.0 0.0 0.0 0.0 0.0
1.5 2.7 1.8 2.0 2.0 3.4 3.5 5.1 4.7 5.2 3.1 3.8 5.0 2.4 1.0 1.0 0.6 0.0 0.0 0.0 0.0 0.0
0.5 1.1 1.4 1.2 1.1 2.0 2.1 3.0 2.8 3.7 6.6 7.1 8.8 3.7 1.6 0.8 1.6 2.4 5.2 2.5 1.9 1.4
0.2 0.4 0.6 0.4 0.4 0.8 1.0 0.7 1.5 2.5 4.4 5.4 7.3 9.5 7.8 7.3 8.6 8.2 5.6 5.7 6.8 7.8